TURKSAT 5A

Last updated on Tue Sep 22 2026 00:03:15 GMT+0000 (Coordinated Universal Time)

1 47306U 21001A 26264.56646436 .00000150 00000+0 00000+0 0 9998 2 47306 0.0142 124.2050 0000271 328.0073 143.1017 1.00271498 20939
UTC large
Height (km)
Speed (km/s)
/
Latitude / Longitude
Inclination (degrees)
Orbital Period (minutes)
Azimuth
Elevation
Range (km)
Doppler Factor

Next 0 passes for location: London (51.5072 / 0.1276)

No passes found over London.
TURKSAT 5A